Showing default

EOS-8, 60454

Orbit data source: Space-Track

EOS-8, 60454 is a payload satellite owned by ISRO (IN) in LEO that was launched on Fri, 16 Aug 2024 UTC via an SSLV launch vehicle from the Sirharikota (SRI). Payload-class satellites include a variety of spacecraft equipped with specific instruments for various scientific and technological missions. These include communications satellites like Starlink; space stations such as the ISS; scientific satellites like the Hubble; Earth observation satellites from companies like Planet Labs, Umbra, and HawkEye 360; GPS; miniature CubeSats for education and research; and military/defense satellites.

Loading next visibility...
Identifier
60454, 2024-147A
Orbit
LEO
Last TLE update
14 hours ago
Origin
Manufacturer
ISRO SAC/Banga
Mission
Operational Civil Imaging
Bus & Motor
IMS-1, Unknown motor
Mass
176 kg wet, ~176 kg dry
Launch date (UTC)
2024-08-16 (11 months ago)
Launch vehicle
SSLV
Launch site
Sirharikota (SRI)
Object type
Payload
Rocket body
Debris
Shape & HBR
Box + 2 Pan, 3 m
Radar Cross Section
0.935 m², Large (>1 m²)

Expand to show TLE details & history

TLE from 14 hours ago
0 EOS-8
1 60454U 24147A   25189.73846139  .00020546  00000-0  47275-3 0  9998
2 60454  37.3814  59.5006 0003871 297.1070  62.9297 15.41886330 49970
Epoch: 2025-07-08T17:43Z
TLE epoch observation values (Epoch: 2025-07-08T17:43:23.064Z)
Latitude
-0.00005°
Longitude
-133.2747°
Altitude
438.495 km
Speed
7.652 km/s
True Right ascension
03h 58m 00s
True Declination
0° 00' 00"
Sunlit
Object was in daylight at epoch
Visualization orbit readout
Latitude
-36.32898°
Longitude
116.34192°
Altitude
448.532 km
Speed
7.645 km/s
Apparent Right ascension
00h 39m 07s
Apparent Declination
-78° 01' 04"
Sunlit
Object is in full shadow
Visualization observer readout
Local Sidereal Time
19:25:15
Azimuth
165.328° S
Elevation
-36.573°
Doppler factor
1
Orbital elements
Apogee altitude
446.076 km
Perigee altitude
440.795 km
Semi-major axis
6,821.572 km
Eccentricity
0.00039
Inclination
37.3814°
RAAN
59.5006°
Arg. of periapsis
297.107°
True anomaly
Unknown
Mean anomaly
62.9297°
Eccentric anomaly
Unknown
Mean motion
3.85227 °/min
Orbital period
93.45 mins
BSTAR
0.00047275
Loading maneuver chart data...
Loading SW <> Apogee altitude chart data...
Loading historical data...
Loading historical data...
Loading historical data...
Loading historical data...
Loading historical data...
Loading historical data...
Loading historical data...
Other satellites on launch #147 in the year 2024 (2024-08-16 UTC)

EOS-8 Visibility forecast

Observer location: undefined°, undefined°

Span
Click to sort rows by Start time (UTC) header in descending order
Start Az.
Max El. time (UTC)
Max El. Az.
Max El.
End time (UTC)
End Az.
5 mins2025-07-09 18:48:47.825Z207.969° SW2025-07-09 18:51:47.825Z147.833° SSE19.992°2025-07-09 18:53:47.825Z109.613° ESE
5 mins2025-07-09 20:27:47.825Z235.48° WSW2025-07-09 20:29:47.825Z150.94° SSE36.422°2025-07-09 20:32:47.825Z96.647° ESE
5 mins2025-07-09 22:05:47.825Z253.543° W2025-07-09 22:07:47.825Z180.064° SSW36.959°2025-07-09 22:10:47.825Z113.738° SE
|